Location: Bacharowice
(49.9333°N, 19.5833°E)
Time: 09:18:15
(UTC+00:00)

Cosmos 1943 Rocket - Pass Details

Date: 11 May 2021
Orbit: 814 x 842 km, 71.0° (Epoch: 21 June)

Event Time Altitude Azimuth Distance (km) Brightness Sun altitude
Exits shadow 20:32:25 22° 119° (ESE) 1,742 3.3 -16.5°
Maximum altitude 20:33:30 24° 102° (ESE) 1,684 3.4 -16.6°
Drops below altitude 10° 20:37:50 10° 51° (NE) 2,446 4.7 -17.0°
Sets 20:40:42 0° 38° (NE) 3,379 5.6 -17.2°
